Location: Unspecified
(48.2082°N, 0.0000°E)
Time: 09:34:35
(UTC+00:00)

A-11 Canister half - Pass Details

Date: 28 June 2019
Orbit: 1514 x 1686 km, 47.2° (Epoch: 24 August)

Event Time Altitude Azimuth Distance (km) Brightness Sun altitude
Rises 07:07:34 0° 191° (S) 4,926 11.5 27.7°
Reaches altitude 10° 07:11:36 10° 178° (S) 3,933 11.2 28.3°
Maximum altitude 07:18:55 23° 130° (SE) 2,983 11.5 29.6°
Drops below altitude 10° 07:26:07 10° 83° (E) 3,875 12.7 30.8°
Sets 07:30:01 0° 70° (ENE) 4,838 12.6 31.4°
